TimeEST,TemperatureF,Dew PointF,Humidity,Sea Level PressureIn,VisibilityMPH,Wind Direction,Wind SpeedMPH,Gust SpeedMPH,PrecipitationIn,Events,Conditions,WindDirDegrees,DateUTC
12:55 AM,46.9,29.5,51,29.98,10.0,WSW,8.1,-,N/A,,Clear,240,2012-12-19 05:55:00
1:55 AM,46.6,28.9,50,29.98,10.0,West,8.1,-,N/A,,Clear,270,2012-12-19 06:55:00
2:55 AM,45.5,28.4,51,29.99,10.0,West,5.8,-,N/A,,Clear,270,2012-12-19 07:55:00
3:55 AM,43.5,27.9,54,29.99,10.0,West,5.8,-,N/A,,Clear,260,2012-12-19 08:55:00
4:55 AM,39.7,30.7,70,30.00,10.0,South,3.5,-,N/A,,Clear,170,2012-12-19 09:55:00
5:55 AM,36.1,30.9,81,30.01,10.0,Calm,Calm,-,N/A,,Clear,0,2012-12-19 10:55:00
6:55 AM,36.5,30.4,78,30.03,10.0,Calm,Calm,-,N/A,,Clear,0,2012-12-19 11:55:00
7:55 AM,37.8,31.1,77,30.06,10.0,Calm,Calm,-,N/A,,Clear,0,2012-12-19 12:55:00
8:55 AM,49.8,30.0,47,30.06,10.0,SW,8.1,-,N/A,,Clear,230,2012-12-19 13:55:00
9:55 AM,54.9,31.1,40,30.08,10.0,West,9.2,-,N/A,,Clear,260,2012-12-19 14:55:00
10:55 AM,59.9,32.9,36,30.08,10.0,West,10.4,-,N/A,,Clear,280,2012-12-19 15:55:00
11:55 AM,64.4,32.5,30,30.07,10.0,WSW,9.2,-,N/A,,Clear,240,2012-12-19 16:55:00
12:55 PM,66.6,33.1,29,30.04,10.0,WSW,6.9,-,N/A,,Clear,250,2012-12-19 17:55:00
1:55 PM,68.7,33.4,27,30.02,10.0,West,9.2,-,N/A,,Clear,260,2012-12-19 18:55:00
2:55 PM,70.9,33.6,25,30.01,10.0,WSW,9.2,-,N/A,,Clear,240,2012-12-19 19:55:00
3:55 PM,70.3,33.3,25,30.02,10.0,SW,9.2,-,N/A,,Clear,220,2012-12-19 20:55:00
4:55 PM,65.7,36.7,34,30.03,10.0,SW,6.9,-,N/A,,Clear,220,2012-12-19 21:55:00
5:44 PM,57.2,39.2,51,30.04,6.0,SSW,5.8,-,N/A,,Haze,210,2012-12-19 22:44:00
5:50 PM,57.2,39.2,51,30.04,6.0,SSW,4.6,-,N/A,,Haze,210,2012-12-19 22:50:00
5:55 PM,57.4,40.6,54,30.05,8.0,SSW,5.8,-,N/A,,Clear,210,2012-12-19 22:55:00
6:55 PM,54.5,39.6,57,30.07,10.0,Calm,Calm,-,N/A,,Clear,0,2012-12-19 23:55:00
7:55 PM,51.4,39.0,63,30.08,10.0,Calm,Calm,-,N/A,,Clear,0,2012-12-20 00:55:00
8:55 PM,50.2,40.5,69,30.09,10.0,Calm,Calm,-,N/A,,Clear,0,2012-12-20 01:55:00
9:55 PM,47.8,41.0,77,30.10,10.0,Calm,Calm,-,N/A,,Clear,0,2012-12-20 02:55:00
10:55 PM,46.4,38.8,75,30.11,10.0,Calm,Calm,-,N/A,,Clear,0,2012-12-20 03:55:00
11:55 PM,44.2,38.1,79,30.11,10.0,Calm,Calm,-,N/A,,Clear,0,2012-12-20 04:55:00